{"data":{"norad_id":58102,"intl_designator":"2023-161F","name":"STARLINK-30592","alt_names":[],"object_type":"PAYLOAD","status":"ACTIVE","operator":null,"country":"US","launch_date":"2023-10-21","launch_site_code":"AFWTR","launch_vehicle":null,"mission":null,"orbit_class":"UNKNOWN","rcs_meters":null,"size_class":null,"mass_kg":null,"dimensions":null,"purposes":["comms"],"wikipedia_slug":null,"has_3d_model":false,"image_url":null,"decayed_at":null,"tle_current":{"epoch":"2026-09-20T10:24:55.059840Z","epoch_age_seconds":146139,"freshness":"FRESH","line1":"1 58102U 23161F   26263.43397060 -.00000684  00000+0 -90980-5 0  9990","line2":"2 58102  53.1623 337.7218 0001338  96.7373 263.3782 15.34396683164289","mean_motion":15.34396683,"eccentricity":0.0001338,"inclination_deg":53.1623,"raan_deg":337.7218,"arg_perigee_deg":96.7373,"mean_anomaly_deg":263.3782,"bstar":-9.098e-6,"rev_number":16428,"period_min":93.847960957825,"perigee_km":461.79779330464,"apogee_km":463.62840479114,"semimajor_km":6840.8500990479,"source":"CELESTRAK","updated_at":"2026-09-21T09:00:33.787098Z"}}}